AQI (43)

Current Conditions for Foresthill, CA. Clear skies, Dry   
Visibility: 10 miles
Space WX Alerts: ALERT:  Geomagnetic K-index of 4 ( Latest Alert ) - Issue Time: 2020 Feb 21 0119 UTC

  Summary / Temperature 

Current Temperature
49.6°F
9.8°C
(24/hr Ago)
46.2°F
(Apparent temp)
46.7°F
Cool
Wind Chill Graphs
49.6°F 

49.6°F/ 9.8°C
 --- Virtual Temp: 51.0°F ---

 Temp Rate:

 24/hr Difference:

 Avg Running Temp:

 Todays High:

 Todays Low:

 Y-days High:

 Y-days Low:

 Todays WChill:

 Y-days WChill:

 Evapotranspiration:

-3.5°F/hr 

+3.4°F

51.6°F

64.8°F 1:52pm

42.5°F 7:00am

61.8°F 1:43pm

41.1°F 7:10am

35.3°F 4:05am

33.8°F 6:56am

0.099 in

115' Above Ground

 Temperature:

 6'AGL VRS 115'AGL:

 Avg Running Temp:

 Humidity:

 Todays High:

 Todays Low:

 Y-days High:

 Y-days Low:

55.0°F 

+5.4°F

55.8°F

45% 

63.0°F 1:47pm

47.0°F 2:55am

60.0°F 2:06pm

45.0°F 2:04am

Temp & Humidity Graphs

  Wind 

Wind Speed

 Calm

Gusting to

 None

Calm

240°  

Calm

 Avg speed:

 Wind Run:

 Peak Gust:

Calm 

31.0 miles

  18.0 mph 4:06am

  Almanac  

Moon age: 27 days,5 hours,52 minutes,6%

Waning Crescent
6%
Illuminated
27 days in cycle

 Moonrise:

 Moonset:

 Sunrise:

 Sunset:

 Solar Noon:

5:18am

3:03pm

6:46am

5:43pm

12:17pm

2min 26s more daylight tomorrow 

  Solar Radiation 

(Current Solar)
  No Sun Light
(Todays High)
 670 W/m2@12:32pm

Rain

 Rain Today:

 Rain Rate (/hr):

 Rain last hour:

 Rain Yesterday:

 This Month:

 Season Total:

17 Days Since Last Rain Day

0.00 in

0.000 in

0.00 in

0.00 in

0.01 in

20.38 in

Updated Time

Updated: 2/20/20  7:43pm

(Updated  sec ago)

Humidity & Barometer

 Humidity:

 Wetbulb:

 Dew Point:

 Barometer:

60% 

43.8°F 

36.3°F 

30.171 inHg 

 Baro Trend:  Steady 
Northern Calif
Preparedness
Fire 
Level 

    UV Index  

(Current UV)
0.0  None
(Todays High) @ 12:34pm
3.0   Medium

National Weather Service Forecast

Tonight

Tonight: Partly Cloudy
Partly Cloudy
Friday

Friday: Mostly Sunny
Mostly Sunny
Friday
Night
Friday Night: Partly Cloudy
Partly Cloudy
Saturday

Saturday: Sunny
Sunny
Saturday
Night
Saturday Night: Mostly Clear
Mostly Clear
Sunday

Sunday: Mostly Sunny
Mostly Sunny
Lo 44 °F Hi 65 °F ↓ Lo 45 °F Hi 60 °F Lo 41 °F Hi 58 °F

Foresthill Probe 2 Stats  
Foresthill Probe 2: is located on Thomas Street
at 3000 feet. The main Foresthill Weather site
is located on Melody ln at the 2860 foot elevation

Calm
48.4°F
9.1°C
Temp Rate:
-3.0°F
Calm
Gusting to
None
(Humidity)
62%
Calm
188°  
Updated: 20/02/20 - 19:44:31
 Todays High: 61.8°F 14:15
 Todays Low: 41.1°F 07:02
 Rain Today: 0.00 in
 Season Total: 19.67 in

Foresthill Wx: Monthly,Yearly, Highs and Lows 

Foresthill  
This Weather Data is coming from the main Foresthill
Weather site located on Melody ln at the 2860 foot
elevation
Not Foresthill Probe 2
Weather Data
Month
  High
Month
  Low
Year
High
Year
Low
Temp 69.8°F
2/11/20
28.3°F
2/3/20
69.8°F
2/11/20
28.3°F
2/3/20
Humidity 92%
2/2/20
12%
2/17/20
100%
1/8/20
12%
2/17/20
Heat Index 68.5°F
2/11/20
28.2°F
2/4/20
68.5°F
2/11/20
28.2°F
2/4/20
Wind Chill 69.8°F
2/11/20
14.7°F
2/3/20
69.8°F
2/11/20
14.7°F
2/3/20
Wind Gust 46 mph
2/9/20
0 mph
2/1/20
46 mph
2/9/20
0 mph
1/1/20
Barometer 30.41 in
2/1/20
29.96 in
2/8/20
30.59 in
1/5/20
29.73 in
1/16/20
ET 0.14 in
2/9/20
0.00 in
2/1/20
0.14 in
2/9/20
0.00 in
1/1/20
Dew Point 47.7°F
2/1/20
-2.6°F
2/3/20
49.2°F
1/25/20
-2.6°F
2/3/20
Visible Satellite Pacific Satellite US Radar Satellite Imagery Sacramento,CA.  (click to enlarge)
NWS Weather Forecast - Summary
Updated: Thursday, February 20, 2020 - 2:27pm PST
NWS Weather Forecast: Tonight and Friday (Updated: Thu, 20-Feb-2020 2:09pm PST)
Tonight

Tonight: Partly Cloudy
Partly Cloudy

Lo 44 °F
NWS forecast: Partly cloudy, with a low around 44. East wind 2 to 7 mph.
Friday

Friday: Mostly Sunny
Mostly Sunny

Hi 65 °F ↓
NWS forecast: Mostly sunny. High near 65, with temperatures falling to around 60 in the afternoon. Northwest wind 2 to 6 mph.
YR.NO 10 Day Weather forecast
Last update: 02/20/2020 @ 17:27
Next update: 02/20/2020 @ 23:35
Provided by: 22
      Temperature Precipitation Pressure Wind  
Today
02/20/2020
19:00 00:00 48°F   30.11 inHg Light air from east-northeast 3 mph
    (Click to enlarge)
meteogram

    Forecast for next 9 days

      Temperature Precip Pressure Wind  
Friday
02/21/2020
00:00 06:00 37°F   30.11 inHg Light breeze from east 7 mph
  06:00 12:00 37°F   30.09 inHg Light breeze from east 6 mph
  12:00 18:00 64°F   30.06 inHg Light breeze from southwest 4 mph
  18:00 00:00 54°F   30.02 inHg Light air from east 2 mph
      Temperature Precip Pressure Wind  
Saturday
02/22/2020
00:00 06:00 45°F   29.97 inHg Gentle breeze from east-northeast 8 mph
  06:00 12:00 45°F   29.96 inHg Light breeze from east-northeast 7 mph
  12:00 18:00 57°F   29.97 inHg Light breeze from southwest 6 mph
  18:00 00:00 46°F   30.01 inHg Light air from south-southeast 2 mph
      Temperature Precip Pressure Wind  
Sunday
02/23/2020
00:00 06:00 36°F   30.10 inHg Light breeze from east 5 mph
  04:00 10:00 34°F   30.16 inHg Light air from east 3 mph
  10:00 16:00 52°F   30.28 inHg Light air from west 3 mph
  16:00 22:00 54°F   30.29 inHg Light breeze from west 5 mph
  22:00 04:00 39°F   30.35 inHg Light air from east-northeast 3 mph
      Temperature Precip Pressure Wind  
Monday
02/24/2020
04:00 10:00 34°F   30.30 inHg Light breeze from east-northeast 6 mph
  10:00 16:00 61°F   30.30 inHg Light air from north 2 mph
  16:00 22:00 61°F   30.23 inHg Light breeze from west 5 mph
  22:00 04:00 45°F   30.26 inHg Light breeze from east-northeast 7 mph
      Temperature Precip Pressure Wind  
Tuesday
02/25/2020
04:00 10:00 41°F   30.23 inHg Light breeze from east-northeast 6 mph
  10:00 16:00 64°F   30.22 inHg Light breeze from east-northeast 5 mph
  16:00 22:00 66°F   30.16 inHg Light breeze from west-northwest 5 mph
  22:00 04:00 48°F   30.18 inHg Light breeze from east-northeast 7 mph
      Temperature Precip Pressure Wind  
Wednesday
02/26/2020
04:00 10:00 41°F   30.16 inHg Light breeze from east 7 mph
  10:00 16:00 64°F   30.17 inHg Light air from south-southwest 3 mph
  16:00 22:00 64°F   30.09 inHg Light breeze from west 4 mph
  22:00 04:00 45°F   30.09 inHg Light breeze from east-northeast 7 mph
      Temperature Precip Pressure Wind  
Thursday
02/27/2020
04:00 10:00 45°F   30.05 inHg Gentle breeze from east-northeast 9 mph
  10:00 16:00 66°F   30.08 inHg Light air from east-southeast 2 mph
  16:00 22:00 64°F   30.04 inHg Light breeze from west-southwest 4 mph
  22:00 04:00 46°F   30.08 inHg Gentle breeze from east-northeast 9 mph
      Temperature Precip Pressure Wind  
Friday
02/28/2020
04:00 10:00 43°F   30.08 inHg Light breeze from east 7 mph
  10:00 16:00 64°F   30.14 inHg Light air from southwest 3 mph
  16:00 22:00 63°F   30.13 inHg Light breeze from west-southwest 5 mph
  22:00 04:00 43°F   30.19 inHg Light breeze from east 5 mph
      Temperature Precip Pressure Wind  
Saturday
02/29/2020
04:00 10:00 37°F   30.16 inHg Light breeze from east-northeast 6 mph
  10:00 16:00 63°F   30.19 inHg Light air from west-southwest 3 mph
  16:00 22:00 63°F   30.11 inHg Light breeze from west-southwest 6 mph

NOAA Local Storm Report
2 MILES NORTH OF BEAR VALLEY   ( More )
DATE
12/02/2019
TIME
9:00 AM
COUNTY
ALPINE
STATE
CA
GEOGRAPHIC
38.49N 120.04W
SOURCE
PUBLIC
SNOW MEASURED AT 21.0 INCH
bear valley ski resort reported 21 inches of new snow accumulation over a period of 24 hours.
How Close Are We To this Month's Temperature Record ?
Updated Thursday, Feb 20, 2020- 7:40:00 PM

Current Temperature: 49.6°F

February's High: Temperature Record 70.3°F - Set on Sun, Feb 7, 2016 - 2:27:00 PM
We are currently 20.7°F Less than this Month's record High

February's Low: Temperature Record 21.9°F - Set on Fri, Feb 23, 2018 - 6:14:00 AM
We are currently 27.7°F More than this Month's record Low

Weather History For Thursday, February 20, 2020


On this Day - In Weather History ...
Data courtesy of weatherforyou.com
powered by Cumulus v1.9.3 (1059)
Ambient Weather VWS v14.00
Top Website Map Copyright © 2007 - 2020 Foresthillweather.com Never base important decisions on this or any weather information obtained from the Internet